QPF
0.00 0.00 0.00 0.00 0.00 0.00 0.00 0.00 0.00 0.00 0.00 0.00 0.00 0.00 0.00 0.00 0.00 0.00 0.00 0.00 0.00 0.00 0.00 0.00 0.00 0.00 0.00 0.00 0.00 0.00 0.00 0.00 0.00 0.00 0.00 0.00 0.00 0.00 0.00 0.00 0.00 0.00 0.00
0.00 0.00 0.00 0.00 0.00 0.00 0.00 0.00 0.00 0.00 0.00 0.00 0.00 0.00 0.00 0.00 0.00 0.00 0.00 0.00 0.00 0.00 0.00 0.00 0.00 0.00 0.00 0.00 0.00 0.00 0.00 0.00 0.00 0.00 0.00 0.00 0.00 0.00 0.00 0.00 0.00 0.00 0.00
0.00 0.00 0.00 0.00 0.00 0.00 0.00 0.00 0.00 0.00 0.00 0.00 0.00 0.00 0.00 0.00 0.00 0.00 0.00 0.00 0.00 0.00 0.00 0.00 0.00 0.00 0.00 0.00 0.00 0.00 0.00 0.00 0.00 0.00 0.00 0.00 0.00 0.00 0.00 0.00 0.00 0.00 0.00
0.00 0.00 0.00 0.00 0.00 0.00 0.00 0.00 0.00 0.00 0.00 0.00 0.00 0.00 0.00 0.00 0.00 0.00 0.00 0.00 0.00 0.00 0.00 0.00 0.00 0.00 0.00 0.00 0.00 0.00 0.00 0.00 0.00 0.00 0.01 0.01 0.00 0.00 0.00 0.00 0.00 0.00 0.00
0.00 0.00 0.00 0.00 0.00 0.00 0.00 0.00 0.00 0.00 0.00 0.00 0.00 0.00 0.00 0.00 0.00 0.00 0.00 0.00 0.00 0.00 0.00 0.00 0.00 0.00 0.00 0.00 0.00 0.00 0.00 0.00 0.00 0.00 0.00 0.00 0.00 0.00 0.00 0.00 0.00 0.00 0.00
0.00 0.00 0.00 0.00 0.00 0.00 0.00 0.00 0.00 0.00 0.00 0.00 0.00 0.00 0.00 0.00 0.00 0.00 0.00 0.00 0.00 0.00 0.00 0.00 0.00 0.00 0.00 0.00 0.00 0.00 0.00 0.00 0.00 0.00 0.00 0.00 0.00 0.00 0.00 0.00 0.00 0.00 0.00
0.00 0.00 0.00 0.00 0.00 0.00 0.00 0.00 0.00 0.00 0.00 0.00 0.00 0.00 0.00 0.00 0.00 0.00 0.00 0.00 0.00 0.00 0.00 0.00 0.00 0.00 0.00 0.00 0.00 0.00 0.00 0.00 0.00 0.00 0.00 0.00 0.00 0.00 0.00 0.00 0.00 0.00 0.00
0.00 0.00 0.00 0.00 0.00 0.00 0.00 0.00 0.00 0.00 0.00 0.00 0.00 0.00 0.00 0.00 0.00 0.00 0.00 0.00 0.00 0.00 0.00 0.00 0.00 0.00 0.00 0.00 0.00 0.00 0.00 0.00 0.00 0.00 0.00 0.00 0.00 0.00 0.00 0.00 0.00 0.00 0.00
0.00 0.00 0.00 0.00 0.00 0.00 0.00 0.00 0.00 0.00 0.00 0.00 0.00 0.00 0.00 0.00 0.00 0.00 0.00 0.00 0.00 0.00 0.00 0.00 0.00 0.00 0.00 0.00 0.00 0.00 0.00 0.00 0.00 0.00 0.00 0.00 0.00 0.00 0.00 0.00 0.00 0.00 0.00
0.00 0.00 0.00 0.00 0.00 0.00 0.00 0.00 0.00 0.00 0.00 0.00 0.00 0.00 0.00 0.00 0.00 0.00 0.00 0.00 0.00 0.00 0.00 0.00 0.00 0.00 0.00 0.00 0.00 0.00 0.00 0.00 0.00 0.00 0.00 0.00 0.00 0.00 0.00 0.00 0.00 0.00 0.00
0.00 0.00 0.00 0.00 0.00 0.00 0.00 0.00 0.00 0.00 0.00 0.00 0.00 0.00 0.00 0.00 0.00 0.00 0.00 0.00 0.00 0.00 0.00 0.00 0.00 0.00 0.00 0.00 0.00 0.00 0.00 0.00 0.00 0.00 0.00 0.00 0.00 0.00 0.00 0.00 0.00 0.00 0.00
0.00 0.00 0.00 0.00 0.00 0.00 0.00 0.00 0.00 0.00 0.00 0.00 0.00 0.00 0.00 0.00 0.00 0.00 0.00 0.00 0.00 0.00 0.00 0.00 0.00 0.00 0.00 0.00 0.00 0.00 0.00 0.00 0.00 0.00 0.00 0.00 0.00 0.00 0.00 0.00 0.00 0.00 0.00
0.00 0.00 0.00 0.00 0.00 0.00 0.00 0.00 0.00 0.00 0.00 0.00 0.00 0.00 0.00 0.00 0.00 0.00 0.00 0.00 0.00 0.00 0.00 0.00 0.00 0.00 0.00 0.00 0.00 0.00 0.00 0.00 0.00 0.00 0.00 0.00 0.00 0.00 0.00 0.00 0.00 0.00 0.00
0.00 0.00 0.00 0.00 0.00 0.00 0.00 0.00 0.00 0.00 0.00 0.00 0.00 0.00 0.00 0.00 0.00 0.00 0.00 0.00 0.00 0.00 0.00 0.00 0.00 0.00 0.00 0.00 0.00 0.00 0.00 0.00 0.00 0.00 0.00 0.00 0.00 0.00 0.00 0.00 0.00 0.00 0.00
0.00 0.00 0.00 0.00 0.00 0.00 0.00 0.00 0.00 0.00 0.00 0.00 0.00 0.00 0.00 0.00 0.00 0.00 0.00 0.00 0.00 0.00 0.00 0.00 0.00 0.00 0.00 0.00 0.00 0.00 0.00 0.00 0.00 0.00 0.00 0.00 0.00 0.00 0.00 0.00 0.00 0.00 0.00
0.00 0.00 0.00 0.00 0.00 0.00 0.00 0.00 0.00 0.00 0.00 0.00 0.00 0.00 0.00 0.00 0.00 0.00 0.00 0.00 0.00 0.00 0.00 0.00 0.01 0.00 0.00 0.00 0.00 0.00 0.00 0.00 0.00 0.00 0.00 0.00 0.00 0.00 0.00 0.00 0.00 0.00 0.00
0.00 0.00 0.00 0.00 0.00 0.00 0.00 0.00 0.00 0.00 0.00 0.00 0.00 0.00 0.00 0.00 0.00 0.00 0.00 0.01 0.02 0.01 0.00 0.00 0.00 0.00 0.00 0.00 0.00 0.00 0.00 0.00 0.00 0.00 0.00 0.00 0.00 0.00 0.00 0.00 0.00 0.00 0.00
0.00 0.00 0.00 0.00 0.00 0.00 0.00 0.00 0.00 0.00 0.00 0.00 0.00 0.00 0.00 0.00 0.00 0.00 0.00 0.00 0.01 0.00 0.00 0.01 0.01 0.00 0.00 0.00 0.00 0.00 0.00 0.00 0.00 0.00 0.00 0.00 0.00 0.00 0.00 0.00 0.00 0.00 0.00
0.00 0.00 0.00 0.00 0.00 0.00 0.00 0.00 0.00 0.00 0.00 0.00 0.00 0.00 0.00 0.00 0.00 0.00 0.00 0.00 0.00 0.01 0.01 0.01 0.01 0.00 0.00 0.00 0.00 0.00 0.00 0.00 0.00 0.00 0.00 0.00 0.00 0.00 0.00 0.00 0.00 0.00 0.00
0.00 0.00 0.00 0.00 0.00 0.00 0.00 0.00 0.00 0.00 0.00 0.00 0.00 0.00 0.00 0.00 0.00 0.00 0.00 0.00 0.01 0.02 0.01 0.00 0.00 0.00 0.00 0.00 0.00 0.00 0.00 0.00 0.00 0.00 0.00 0.00 0.00 0.00 0.00 0.00 0.00 0.00 0.00
0.00 0.00 0.00 0.00 0.00 0.00 0.00 0.00 0.00 0.00 0.00 0.00 0.00 0.00 0.00 0.00 0.00 0.00 0.00 0.01 0.01 0.00 0.00 0.00 0.00 0.00 0.00 0.00 0.00 0.00 0.00 0.00 0.00 0.00 0.00 0.00 0.00 0.00 0.00 0.00 0.00 0.00 0.00
0.00 0.00 0.00 0.00 0.00 0.00 0.00 0.00 0.00 0.00 0.00 0.00 0.00 0.00 0.00 0.00 0.01 0.00 0.00 0.00 0.00 0.00 0.00 0.00 0.00 0.00 0.00 0.00 0.00 0.00 0.00 0.00 0.00 0.00 0.00 0.00 0.00 0.00 0.00 0.00 0.00 0.00 0.00
0.00 0.00 0.00 0.00 0.00 0.00 0.00 0.00 0.00 0.00 0.00 0.01 0.00 0.01 0.00 0.00 0.00 0.00 0.00 0.00 0.00 0.00 0.00 0.00 0.00 0.00 0.00 0.00 0.00 0.00 0.00 0.00 0.00 0.00 0.00 0.00 0.00 0.00 0.00 0.00 0.00 0.00 0.00
0.00 0.00 0.00 0.00 0.00 0.00 0.00 0.00 0.00 0.00 0.00 0.00 0.00 0.00 0.00 0.00 0.00 0.00 0.01 0.00 0.00 0.00 0.00 0.00 0.00 0.00 0.00 0.00 0.00 0.00 0.00 0.00 0.00 0.00 0.00 0.00 0.00 0.00 0.00 0.00 0.00 0.00 0.00
0.00 0.00 0.00 0.00 0.00 0.00 0.00 0.00 0.00 0.00 0.00 0.00 0.00 0.00 0.00 0.00 0.00 0.00 0.00 0.00 0.00 0.00 0.00 0.00 0.00 0.00 0.00 0.00 0.00 0.00 0.00 0.00 0.00 0.00 0.00 0.00 0.00 0.00 0.00 0.00 0.00 0.00 0.00
0.00 0.00 0.00 0.00 0.00 0.00 0.00 0.00 0.00 0.00 0.00 0.00 0.00 0.00 0.00 0.00 0.00 0.00 0.00 0.00 0.00 0.00 0.00 0.00 0.00 0.00 0.00 0.00 0.00 0.00 0.00 0.00 0.00 0.00 0.00 0.00 0.00 0.00 0.00 0.00 0.00 0.00 0.01
MSLP
1010.39 1010.23 1010.58 1010.99 1011.25 1011.68 1012.25 1012.68 1013.01 1013.51 1013.94 1014.21 1014.47 1014.64 1014.90 1015.13 1015.36 1015.59 1015.77 1016.05 1016.29 1016.47 1016.64 1016.84 1016.91 1016.92 1017.00 1017.13 1017.21 1017.25 1017.25 1017.32 1017.37 1017.39 1017.42 1017.46 1017.57 1017.70 1017.69 1017.86 1017.98 1018.10 1018.20
1009.54 1010.17 1010.69 1010.97 1011.26 1011.72 1012.24 1012.73 1013.13 1013.59 1014.05 1014.38 1014.72 1014.94 1015.14 1015.39 1015.65 1015.85 1016.09 1016.37 1016.58 1016.75 1016.91 1017.07 1017.18 1017.24 1017.28 1017.32 1017.42 1017.38 1017.48 1017.69 1017.74 1017.79 1017.84 1017.82 1017.91 1017.97 1017.85 1018.19 1018.35 1018.47 1018.46
1009.47 1010.24 1010.66 1010.98 1011.35 1011.73 1012.17 1012.70 1013.16 1013.62 1014.08 1014.48 1014.80 1015.13 1015.34 1015.59 1015.85 1016.16 1016.39 1016.68 1016.91 1017.10 1017.24 1017.40 1017.44 1017.51 1017.58 1017.60 1017.62 1017.56 1017.75 1017.95 1018.14 1018.21 1018.27 1018.32 1018.19 1018.25 1018.42 1018.59 1018.65 1018.67 1018.71
1009.35 1010.10 1010.57 1011.00 1011.40 1011.81 1012.24 1012.72 1013.21 1013.63 1014.08 1014.55 1014.94 1015.24 1015.49 1015.82 1016.15 1016.37 1016.53 1016.79 1016.97 1017.16 1017.39 1017.48 1017.64 1017.77 1017.92 1017.95 1017.89 1017.79 1018.02 1018.22 1018.34 1018.44 1018.39 1018.50 1018.30 1018.23 1018.59 1018.77 1018.87 1018.93 1019.03
1009.47 1010.04 1010.64 1011.10 1011.45 1011.89 1012.29 1012.76 1013.22 1013.63 1014.09 1014.63 1014.99 1015.30 1015.60 1015.94 1016.29 1016.53 1016.70 1016.89 1017.02 1017.20 1017.40 1017.58 1017.75 1017.91 1017.98 1018.13 1018.13 1017.97 1018.24 1018.43 1018.53 1018.37 1018.25 1018.27 1018.47 1018.36 1018.36 1018.77 1018.98 1019.08 1019.19
1009.43 1010.12 1010.86 1011.18 1011.49 1011.91 1012.32 1012.70 1013.18 1013.64 1014.10 1014.63 1015.05 1015.43 1015.67 1015.98 1016.46 1016.69 1016.84 1017.01 1017.13 1017.29 1017.52 1017.72 1017.90 1018.11 1018.16 1018.16 1018.13 1018.11 1018.29 1018.40 1018.39 1018.36 1018.08 1018.05 1018.24 1018.24 1018.29 1018.74 1018.95 1019.11 1019.25
1009.25 1010.05 1010.80 1011.18 1011.51 1011.90 1012.24 1012.66 1013.04 1013.62 1014.08 1014.56 1015.16 1015.47 1015.78 1016.03 1016.52 1016.93 1017.06 1017.11 1017.31 1017.41 1017.57 1017.83 1017.96 1018.15 1018.26 1018.28 1018.23 1018.08 1018.13 1018.16 1018.24 1018.35 1018.34 1018.44 1018.13 1017.88 1018.17 1018.64 1018.93 1019.17 1019.39
1009.00 1009.83 1010.57 1011.09 1011.47 1011.90 1012.28 1012.66 1013.00 1013.52 1013.98 1014.49 1015.01 1015.44 1015.75 1016.11 1016.57 1016.99 1017.26 1017.29 1017.35 1017.49 1017.66 1017.85 1018.04 1018.20 1018.35 1018.38 1018.43 1018.37 1018.23 1018.14 1018.05 1018.32 1018.42 1018.12 1018.23 1017.83 1018.17 1018.59 1018.86 1019.15 1019.34
1009.00 1009.83 1010.53 1011.09 1011.51 1011.94 1012.31 1012.72 1013.01 1013.42 1013.84 1014.31 1014.81 1015.34 1015.76 1016.16 1016.58 1016.86 1017.16 1017.39 1017.45 1017.46 1017.62 1017.82 1017.99 1018.13 1018.28 1018.38 1018.38 1018.40 1018.35 1018.24 1018.27 1018.06 1018.15 1018.12 1018.17 1017.90 1018.13 1018.41 1018.62 1018.85 1019.06
1009.40 1009.97 1010.64 1011.08 1011.53 1012.00 1012.39 1012.74 1013.04 1013.33 1013.79 1014.22 1014.67 1015.18 1015.67 1016.08 1016.49 1016.67 1016.97 1017.14 1017.35 1017.53 1017.54 1017.70 1017.79 1017.97 1018.17 1018.23 1018.29 1018.36 1018.35 1018.33 1018.23 1018.16 1018.19 1018.01 1018.05 1017.82 1017.88 1018.23 1018.48 1018.66 1018.96
1009.62 1009.92 1010.41 1010.93 1011.42 1011.87 1012.28 1012.65 1013.03 1013.37 1013.75 1014.22 1014.54 1014.99 1015.50 1015.95 1016.36 1016.64 1016.81 1017.09 1017.15 1017.41 1017.61 1017.71 1017.89 1017.94 1017.98 1018.11 1018.14 1018.16 1018.23 1018.21 1018.13 1017.93 1018.04 1017.76 1018.03 1018.11 1018.14 1018.28 1018.40 1018.50 1018.74
1009.23 1009.61 1009.84 1010.37 1011.00 1011.52 1011.91 1012.45 1013.00 1013.33 1013.70 1014.06 1014.37 1014.66 1015.16 1015.66 1016.11 1016.39 1016.53 1016.79 1017.11 1017.27 1017.55 1017.74 1017.83 1017.95 1017.98 1018.02 1018.06 1018.09 1018.14 1018.07 1017.95 1017.69 1017.69 1017.57 1017.70 1017.74 1017.90 1018.02 1018.13 1018.23 1018.37
1008.03 1008.90 1009.37 1009.95 1010.36 1010.86 1011.41 1012.15 1012.68 1013.12 1013.45 1013.88 1014.08 1014.34 1014.76 1015.24 1015.72 1016.04 1016.37 1016.60 1016.94 1017.18 1017.44 1017.62 1017.79 1017.95 1017.86 1017.73 1017.79 1017.95 1018.03 1017.96 1017.90 1017.72 1017.68 1017.57 1017.55 1017.52 1017.57 1017.72 1017.78 1017.88 1018.01
1007.50 1008.16 1008.88 1009.40 1010.02 1010.42 1010.73 1011.54 1012.08 1012.57 1013.09 1013.52 1013.81 1014.06 1014.46 1014.88 1015.33 1015.78 1016.08 1016.43 1016.74 1017.02 1017.20 1017.28 1017.54 1017.59 1017.68 1017.52 1017.58 1017.50 1017.57 1017.62 1017.66 1017.51 1017.54 1017.55 1017.58 1017.53 1017.43 1017.42 1017.48 1017.51 1017.54
1006.70 1007.34 1007.94 1008.68 1009.34 1009.88 1010.39 1010.95 1011.58 1012.04 1012.54 1012.99 1013.46 1013.76 1014.05 1014.49 1014.90 1015.20 1015.59 1016.03 1016.31 1016.55 1016.77 1016.92 1016.94 1017.02 1017.17 1017.17 1017.00 1017.01 1016.93 1016.94 1016.98 1017.01 1017.16 1017.27 1017.33 1017.31 1017.23 1017.15 1017.17 1017.17 1017.13
1005.66 1006.47 1007.17 1007.89 1008.63 1009.32 1009.86 1010.39 1011.01 1011.51 1012.06 1012.60 1012.99 1013.27 1013.56 1013.93 1014.37 1014.82 1015.18 1015.50 1015.85 1016.08 1016.26 1016.44 1016.57 1016.60 1016.75 1016.75 1016.88 1016.82 1016.72 1016.65 1016.76 1016.86 1016.81 1016.68 1016.76 1016.72 1016.68 1016.66 1016.54 1016.47 1016.43
1005.02 1005.68 1006.66 1007.35 1008.04 1008.72 1009.32 1009.97 1010.51 1011.04 1011.55 1012.13 1012.42 1012.80 1013.26 1013.60 1014.05 1014.45 1015.10 1015.40 1015.43 1015.61 1015.90 1016.17 1016.33 1016.43 1016.59 1016.58 1016.87 1016.80 1016.85 1016.68 1016.67 1016.74 1016.77 1016.67 1016.53 1016.46 1016.21 1016.07 1016.01 1015.93 1015.90
1004.35 1005.40 1006.15 1006.84 1007.59 1008.35 1008.90 1009.54 1010.23 1010.60 1011.14 1011.74 1012.18 1012.57 1012.94 1013.35 1013.83 1014.28 1014.89 1015.25 1015.26 1015.49 1015.68 1016.07 1016.36 1016.60 1016.76 1016.88 1017.02 1017.13 1017.06 1016.86 1016.63 1016.51 1016.33 1016.32 1016.22 1016.04 1015.92 1015.94 1015.82 1015.68 1015.59
1003.89 1004.85 1005.72 1006.41 1007.18 1007.88 1008.55 1009.11 1009.85 1010.47 1011.07 1011.41 1011.96 1012.36 1012.76 1013.07 1013.54 1014.05 1014.46 1014.87 1015.02 1015.33 1015.76 1016.08 1016.38 1016.65 1016.99 1017.13 1017.09 1016.95 1016.85 1016.66 1016.52 1016.15 1015.98 1015.96 1015.79 1015.53 1015.37 1015.25 1015.17 1015.18 1015.22
1003.39 1004.44 1005.09 1005.89 1006.79 1007.55 1008.31 1008.97 1009.74 1010.35 1010.91 1011.12 1011.56 1011.95 1012.46 1012.81 1013.19 1013.66 1014.06 1014.35 1014.73 1015.37 1015.72 1016.10 1016.48 1016.59 1016.71 1016.92 1017.06 1017.00 1016.57 1016.28 1016.00 1015.92 1015.72 1015.36 1015.18 1014.98 1014.93 1014.89 1014.80 1014.78 1014.75
1002.79 1004.11 1005.13 1005.91 1006.56 1007.19 1007.99 1008.56 1009.48 1010.00 1010.70 1011.08 1011.33 1011.55 1011.96 1012.47 1012.99 1013.48 1014.06 1014.50 1014.62 1015.12 1015.49 1015.89 1016.33 1016.76 1017.00 1017.01 1017.08 1016.80 1016.45 1015.96 1015.73 1015.59 1015.27 1015.28 1015.14 1014.84 1014.65 1014.46 1014.40 1014.20 1014.12
1002.53 1003.54 1004.79 1005.56 1006.08 1006.62 1007.22 1007.82 1008.56 1009.44 1010.41 1010.90 1011.38 1011.65 1011.75 1012.12 1012.61 1013.17 1013.88 1014.44 1014.78 1015.31 1015.69 1016.05 1016.29 1016.67 1016.90 1016.89 1017.47 1017.62 1017.20 1016.35 1015.68 1015.56 1015.40 1015.17 1015.07 1014.69 1014.38 1014.06 1013.89 1013.74 1013.59
1002.13 1002.96 1003.92 1004.93 1005.55 1006.17 1006.73 1007.60 1008.37 1009.42 1010.39 1011.04 1011.40 1011.82 1011.97 1012.04 1012.43 1013.13 1013.81 1014.57 1015.08 1015.39 1015.84 1016.20 1016.51 1016.83 1017.28 1017.28 1017.36 1017.84 1017.78 1017.46 1016.68 1015.65 1015.22 1014.99 1014.79 1014.69 1014.41 1014.07 1013.67 1013.32 1013.08
1001.37 1001.88 1002.85 1003.88 1004.94 1005.84 1006.38 1007.02 1007.56 1008.51 1009.73 1010.26 1010.87 1011.65 1012.10 1012.44 1012.67 1013.17 1013.82 1014.51 1015.03 1015.54 1016.03 1016.50 1016.72 1017.08 1017.42 1017.77 1017.55 1017.37 1017.73 1017.85 1017.51 1015.82 1015.39 1015.12 1015.05 1014.61 1014.33 1014.06 1013.76 1013.31 1012.72
1000.74 1001.55 1002.30 1003.27 1004.22 1005.25 1006.13 1006.69 1007.44 1008.38 1009.23 1010.11 1010.90 1011.63 1012.38 1012.74 1012.77 1013.19 1013.76 1014.57 1015.00 1015.69 1015.99 1016.42 1016.82 1017.13 1017.46 1017.77 1017.81 1017.67 1017.49 1017.27 1017.08 1016.82 1015.18 1015.11 1015.16 1014.59 1014.19 1014.06 1013.88 1013.43 1012.90
1000.43 1001.45 1002.41 1003.46 1004.53 1005.21 1005.95 1006.70 1007.39 1008.26 1009.18 1009.96 1010.78 1011.52 1012.38 1012.84 1013.18 1013.67 1014.07 1014.49 1015.04 1015.64 1016.02 1016.46 1016.54 1017.01 1017.18 1017.35 1017.57 1017.65 1017.59 1017.47 1017.13 1016.88 1015.76 1014.82 1014.53 1014.39 1014.26 1014.00 1013.76 1013.27 1012.82
Thickness
5811 5812 5807 5801 5796 5791 5783 5777 5772 5764 5757 5753 5750 5748 5745 5743 5740 5737 5735 5731 5728 5726 5724 5721 5720 5720 5719 5718 5717 5716 5716 5715 5714 5714 5714 5713 5712 5711 5711 5709 5707 5706 5706
5817 5811 5805 5800 5796 5790 5782 5776 5769 5762 5756 5751 5747 5745 5743 5739 5737 5734 5732 5729 5726 5724 5722 5720 5719 5718 5718 5717 5715 5714 5713 5711 5711 5711 5711 5711 5710 5709 5709 5707 5705 5704 5704
5816 5809 5804 5800 5795 5789 5782 5774 5767 5761 5755 5751 5747 5743 5740 5737 5734 5731 5729 5725 5723 5721 5719 5718 5717 5716 5716 5716 5715 5715 5712 5710 5709 5709 5708 5708 5709 5707 5705 5703 5703 5702 5702
5817 5810 5805 5800 5793 5787 5780 5772 5766 5760 5755 5751 5746 5742 5738 5734 5731 5729 5728 5725 5723 5720 5718 5718 5716 5715 5714 5714 5714 5714 5711 5709 5708 5707 5707 5706 5707 5708 5703 5702 5701 5700 5699
5815 5809 5803 5797 5792 5785 5778 5771 5765 5759 5754 5750 5745 5741 5737 5733 5731 5728 5727 5724 5723 5720 5718 5717 5716 5714 5714 5713 5712 5713 5711 5709 5707 5709 5709 5709 5708 5708 5707 5703 5701 5699 5698
5813 5807 5800 5795 5791 5784 5778 5771 5764 5758 5753 5749 5744 5739 5736 5733 5729 5727 5725 5723 5722 5720 5718 5717 5715 5714 5713 5713 5713 5712 5711 5710 5710 5709 5710 5712 5711 5708 5707 5703 5701 5700 5698
5811 5806 5798 5794 5790 5784 5777 5770 5764 5757 5752 5748 5742 5738 5734 5731 5727 5724 5722 5722 5720 5720 5718 5716 5715 5714 5713 5713 5712 5713 5713 5712 5711 5710 5709 5708 5711 5711 5708 5704 5701 5699 5697
5813 5805 5799 5794 5789 5782 5776 5769 5762 5756 5751 5746 5742 5737 5733 5730 5726 5722 5720 5720 5720 5720 5718 5716 5714 5713 5712 5712 5711 5711 5712 5713 5713 5711 5708 5710 5709 5711 5708 5705 5703 5700 5697
5812 5804 5797 5791 5786 5780 5774 5767 5760 5755 5750 5746 5741 5737 5732 5728 5725 5722 5720 5718 5719 5720 5718 5716 5714 5713 5712 5711 5711 5710 5711 5711 5711 5712 5710 5710 5709 5710 5708 5706 5704 5702 5699
5804 5799 5794 5789 5783 5777 5771 5765 5758 5753 5748 5744 5740 5735 5731 5727 5723 5722 5720 5719 5718 5718 5718 5717 5716 5714 5712 5712 5711 5710 5710 5710 5711 5711 5708 5709 5708 5709 5709 5705 5703 5701 5698
5798 5796 5792 5787 5781 5776 5770 5764 5757 5751 5747 5741 5738 5734 5731 5727 5722 5719 5719 5717 5718 5717 5715 5715 5713 5713 5712 5711 5710 5710 5709 5710 5710 5711 5709 5709 5706 5704 5703 5702 5701 5699 5696
5794 5795 5793 5788 5783 5776 5770 5763 5755 5749 5745 5741 5737 5735 5731 5726 5722 5719 5717 5717 5715 5715 5713 5712 5711 5711 5710 5710 5709 5708 5708 5708 5708 5710 5709 5709 5706 5703 5702 5700 5698 5697 5695
5801 5796 5792 5787 5783 5779 5771 5763 5755 5750 5744 5740 5737 5734 5731 5726 5723 5719 5717 5715 5714 5712 5711 5709 5708 5707 5709 5711 5709 5707 5705 5705 5705 5705 5703 5703 5701 5700 5700 5698 5697 5695 5692
5801 5801 5795 5789 5782 5779 5773 5763 5756 5751 5744 5740 5736 5733 5730 5727 5722 5719 5716 5714 5712 5710 5709 5708 5706 5706 5705 5706 5706 5706 5705 5703 5702 5702 5700 5698 5696 5695 5694 5694 5693 5692 5691
5799 5800 5797 5791 5784 5779 5774 5767 5758 5753 5746 5740 5735 5731 5729 5725 5722 5719 5716 5713 5710 5709 5707 5706 5707 5706 5704 5704 5704 5704 5704 5703 5701 5700 5698 5695 5693 5692 5690 5688 5688 5687 5686
5794 5798 5798 5791 5784 5779 5774 5768 5761 5753 5746 5739 5735 5731 5728 5726 5722 5718 5715 5713 5709 5708 5705 5704 5702 5702 5701 5700 5699 5700 5699 5698 5696 5695 5694 5694 5692 5690 5689 5687 5685 5682 5681
5792 5797 5793 5790 5783 5777 5773 5766 5761 5753 5748 5741 5735 5730 5726 5723 5719 5716 5711 5709 5707 5706 5703 5701 5698 5696 5696 5694 5692 5691 5691 5692 5691 5690 5687 5686 5685 5684 5684 5683 5681 5679 5676
5792 5787 5789 5789 5782 5773 5771 5763 5757 5751 5744 5740 5734 5729 5724 5719 5715 5711 5706 5703 5701 5700 5698 5696 5692 5690 5688 5687 5684 5683 5683 5683 5684 5683 5683 5681 5680 5679 5678 5676 5673 5671 5669
5792 5784 5782 5783 5778 5771 5767 5763 5755 5748 5741 5735 5729 5725 5719 5715 5711 5706 5703 5698 5696 5694 5690 5688 5686 5683 5679 5677 5676 5677 5676 5677 5677 5677 5677 5674 5674 5673 5671 5671 5670 5666 5661
5789 5780 5779 5779 5775 5767 5762 5758 5750 5743 5738 5734 5729 5722 5716 5711 5707 5702 5698 5696 5693 5687 5684 5680 5676 5674 5673 5670 5668 5667 5669 5671 5672 5670 5670 5669 5667 5666 5663 5660 5658 5654 5652
5787 5776 5771 5768 5767 5763 5754 5751 5744 5738 5732 5730 5727 5721 5715 5708 5703 5698 5692 5689 5685 5680 5677 5673 5668 5664 5660 5659 5657 5658 5662 5664 5665 5663 5663 5661 5658 5656 5653 5652 5649 5648 5645
5781 5774 5767 5763 5763 5761 5752 5750 5744 5737 5728 5724 5719 5714 5711 5705 5698 5692 5687 5682 5677 5670 5665 5661 5660 5655 5654 5650 5644 5640 5641 5652 5655 5654 5653 5651 5649 5647 5647 5646 5642 5639 5636
5775 5770 5765 5759 5759 5758 5752 5743 5737 5728 5720 5714 5710 5705 5702 5699 5694 5686 5678 5671 5665 5660 5655 5651 5647 5645 5640 5638 5635 5629 5625 5626 5633 5644 5642 5638 5634 5631 5630 5626 5624 5623 5620
5771 5770 5768 5760 5755 5751 5748 5738 5734 5725 5713 5711 5705 5698 5692 5687 5684 5678 5670 5662 5656 5650 5644 5639 5636 5631 5626 5622 5621 5622 5616 5610 5607 5618 5625 5627 5623 5621 5617 5612 5608 5606 5606
5767 5768 5766 5759 5752 5747 5740 5733 5725 5717 5710 5701 5695 5688 5681 5676 5674 5669 5662 5653 5647 5639 5634 5629 5623 5619 5613 5609 5607 5608 5606 5604 5601 5597 5610 5608 5607 5606 5604 5596 5591 5588 5587
5758 5758 5756 5748 5740 5736 5730 5723 5715 5706 5699 5692 5685 5678 5670 5666 5661 5655 5650 5643 5636 5630 5623 5616 5614 5608 5604 5600 5596 5593 5590 5588 5589 5585 5595 5602 5600 5596 5590 5582 5576 5572 5567